TimePDT,TemperatureF,Dew PointF,Humidity,Sea Level PressureIn,VisibilityMPH,Wind Direction,Wind SpeedMPH,Gust SpeedMPH,PrecipitationIn,Events,Conditions,WindDirDegrees,DateUTC
12:15 AM,73.4,46.4,38,30.05,10.0,East,5.8,-,N/A,,Clear,100,2012-09-15 07:15:00
12:35 AM,73.4,46.4,38,30.05,10.0,East,5.8,-,N/A,,Clear,100,2012-09-15 07:35:00
12:55 AM,75.2,46.4,36,30.05,10.0,East,8.1,-,N/A,,Clear,100,2012-09-15 07:55:00
1:15 AM,73.4,46.4,38,30.05,10.0,East,8.1,-,N/A,,Clear,100,2012-09-15 08:15:00
1:35 AM,73.4,46.4,38,30.06,10.0,East,5.8,-,N/A,,Clear,100,2012-09-15 08:35:00
1:55 AM,73.4,46.4,38,30.06,10.0,East,6.9,-,N/A,,Clear,100,2012-09-15 08:55:00
2:15 AM,73.4,44.6,36,30.06,10.0,Calm,Calm,-,N/A,,Clear,0,2012-09-15 09:15:00
2:35 AM,73.4,44.6,36,30.05,10.0,East,4.6,-,N/A,,Clear,100,2012-09-15 09:35:00
2:55 AM,73.4,44.6,36,30.06,10.0,ESE,5.8,-,N/A,,Clear,110,2012-09-15 09:55:00
3:15 AM,73.4,44.6,36,30.06,10.0,Calm,Calm,-,N/A,,Clear,0,2012-09-15 10:15:00
3:35 AM,73.4,42.8,33,30.05,10.0,Calm,Calm,-,N/A,,Clear,0,2012-09-15 10:35:00
3:55 AM,71.6,42.8,35,30.05,10.0,ESE,5.8,-,N/A,,Clear,110,2012-09-15 10:55:00
4:15 AM,71.6,42.8,35,30.05,10.0,East,5.8,-,N/A,,Clear,100,2012-09-15 11:15:00
4:35 AM,71.6,42.8,35,30.05,10.0,East,8.1,-,N/A,,Clear,90,2012-09-15 11:35:00
4:55 AM,71.6,41.0,33,30.05,10.0,East,5.8,-,N/A,,Clear,100,2012-09-15 11:55:00
5:15 AM,71.6,41.0,33,30.05,10.0,East,5.8,-,N/A,,Clear,90,2012-09-15 12:15:00
5:35 AM,71.6,41.0,33,30.05,10.0,East,5.8,-,N/A,,Clear,100,2012-09-15 12:35:00
5:55 AM,69.8,41.0,35,30.06,10.0,ESE,5.8,-,N/A,,Clear,120,2012-09-15 12:55:00
6:15 AM,71.6,39.2,31,30.06,10.0,ESE,5.8,-,N/A,,Clear,110,2012-09-15 13:15:00
6:35 AM,69.8,39.2,33,30.06,10.0,ESE,6.9,-,N/A,,Clear,110,2012-09-15 13:35:00
6:55 AM,69.8,39.2,33,30.07,10.0,Calm,Calm,-,N/A,,Clear,0,2012-09-15 13:55:00
7:15 AM,71.6,39.2,31,30.07,10.0,East,8.1,-,N/A,,Clear,90,2012-09-15 14:15:00
7:35 AM,71.6,39.2,31,30.08,10.0,East,6.9,-,N/A,,Clear,100,2012-09-15 14:35:00
7:55 AM,73.4,39.2,29,30.08,10.0,ESE,8.1,-,N/A,,Clear,110,2012-09-15 14:55:00
8:15 AM,75.2,39.2,27,30.08,10.0,ESE,9.2,-,N/A,,Clear,110,2012-09-15 15:15:00
8:35 AM,77.0,41.0,28,30.08,10.0,ESE,8.1,-,N/A,,Clear,110,2012-09-15 15:35:00
8:55 AM,78.8,41.0,26,30.08,10.0,ESE,10.4,-,N/A,,Clear,120,2012-09-15 15:55:00
9:15 AM,80.6,42.8,26,30.09,10.0,ESE,6.9,-,N/A,,Clear,120,2012-09-15 16:15:00
9:35 AM,82.4,42.8,25,30.09,10.0,East,5.8,-,N/A,,Clear,100,2012-09-15 16:35:00
9:55 AM,84.2,42.8,23,30.10,10.0,SSE,6.9,-,N/A,,Clear,150,2012-09-15 16:55:00
10:15 AM,84.2,42.8,23,30.10,10.0,Calm,Calm,-,N/A,,Clear,0,2012-09-15 17:15:00
10:35 AM,84.2,44.6,25,30.11,10.0,SW,5.8,-,N/A,,Clear,230,2012-09-15 17:35:00
10:55 AM,86.0,44.6,23,30.11,10.0,SSW,5.8,-,N/A,,Clear,200,2012-09-15 17:55:00
11:15 AM,86.0,44.6,23,30.11,10.0,SW,3.5,-,N/A,,Clear,220,2012-09-15 18:15:00
11:35 AM,87.8,46.4,24,30.11,10.0,West,4.6,-,N/A,,Clear,260,2012-09-15 18:35:00
11:55 AM,87.8,48.2,25,30.11,10.0,WSW,3.5,-,N/A,,Clear,240,2012-09-15 18:55:00
12:15 PM,87.8,48.2,25,30.11,10.0,Calm,Calm,-,N/A,,Clear,0,2012-09-15 19:15:00
12:35 PM,87.8,48.2,25,30.11,10.0,West,5.8,-,N/A,,Clear,260,2012-09-15 19:35:00
12:55 PM,89.6,48.2,24,30.11,10.0,SW,5.8,-,N/A,,Clear,220,2012-09-15 19:55:00
1:15 PM,87.8,46.4,24,30.10,10.0,South,3.5,-,N/A,,Clear,180,2012-09-15 20:15:00
1:35 PM,89.6,46.4,22,30.10,10.0,SW,8.1,-,N/A,,Clear,220,2012-09-15 20:35:00
1:55 PM,89.6,46.4,22,30.09,10.0,Calm,Calm,-,N/A,,Clear,0,2012-09-15 20:55:00
2:15 PM,89.6,46.4,22,30.09,10.0,WSW,8.1,-,N/A,,Clear,240,2012-09-15 21:15:00
2:35 PM,91.4,46.4,21,30.08,10.0,SW,6.9,-,N/A,,Clear,230,2012-09-15 21:35:00
2:55 PM,91.4,46.4,21,30.08,10.0,West,6.9,-,N/A,,Clear,260,2012-09-15 21:55:00
3:15 PM,91.4,44.6,20,30.07,10.0,West,5.8,-,N/A,,Clear,260,2012-09-15 22:15:00
3:35 PM,91.4,44.6,20,30.06,10.0,SW,4.6,-,N/A,,Clear,220,2012-09-15 22:35:00
4:15 PM,91.4,42.8,18,30.05,10.0,West,6.9,-,N/A,,Clear,260,2012-09-15 23:15:00
4:35 PM,91.4,41.0,17,30.05,10.0,WSW,6.9,-,N/A,,Clear,250,2012-09-15 23:35:00
4:55 PM,91.4,42.8,18,30.04,10.0,WSW,5.8,-,N/A,,Clear,250,2012-09-15 23:55:00
5:15 PM,91.4,42.8,18,30.04,10.0,WSW,6.9,-,N/A,,Clear,250,2012-09-16 00:15:00
5:35 PM,89.6,42.8,20,30.04,10.0,Calm,Calm,-,N/A,,Clear,0,2012-09-16 00:35:00
5:55 PM,89.6,42.8,20,30.03,10.0,Calm,Calm,-,N/A,,Clear,0,2012-09-16 00:55:00
6:15 PM,89.6,41.0,18,30.03,10.0,WSW,3.5,-,N/A,,Clear,250,2012-09-16 01:15:00
6:35 PM,87.8,41.0,19,30.02,10.0,Calm,Calm,-,N/A,,Clear,0,2012-09-16 01:35:00
6:55 PM,86.0,42.8,22,30.02,10.0,Calm,Calm,-,N/A,,Clear,0,2012-09-16 01:55:00
7:15 PM,84.2,42.8,23,30.02,10.0,Calm,Calm,-,N/A,,Clear,0,2012-09-16 02:15:00
7:55 PM,71.6,39.2,31,30.03,10.0,Calm,Calm,-,N/A,,Clear,0,2012-09-16 02:55:00
8:15 PM,69.8,39.2,33,30.03,10.0,Calm,Calm,-,N/A,,Clear,0,2012-09-16 03:15:00
8:35 PM,68.0,39.2,35,30.03,10.0,Calm,Calm,-,N/A,,Clear,0,2012-09-16 03:35:00
8:55 PM,71.6,42.8,35,30.04,10.0,Calm,Calm,-,N/A,,Clear,0,2012-09-16 03:55:00
9:35 PM,69.8,41.0,35,30.04,10.0,Calm,Calm,-,N/A,,Clear,0,2012-09-16 04:35:00
9:55 PM,73.4,39.2,29,30.04,10.0,Calm,Calm,-,N/A,,Clear,0,2012-09-16 04:55:00
10:15 PM,75.2,39.2,27,30.04,10.0,ESE,5.8,-,N/A,,Clear,110,2012-09-16 05:15:00
10:35 PM,75.2,37.4,25,30.04,10.0,East,6.9,-,N/A,,Clear,100,2012-09-16 05:35:00
10:55 PM,75.2,37.4,25,30.04,10.0,East,6.9,-,N/A,,Clear,100,2012-09-16 05:55:00
11:15 PM,75.2,37.4,25,30.04,10.0,East,8.1,-,N/A,,Clear,100,2012-09-16 06:15:00
11:35 PM,75.2,37.4,25,30.03,10.0,East,8.1,-,N/A,,Clear,100,2012-09-16 06:35:00
11:55 PM,75.2,37.4,25,30.03,10.0,East,8.1,-,N/A,,Clear,100,2012-09-16 06:55:00